C/2017 C1 ( NEOWISE )

Japanese version
Home page
Updated on March 25, 2017

---------------------------------------------------------------------

* Profile

Discovery Date February 6, 2017
Magnitude 19 mag
Discoverer Near-Earth Object Wide-field Infrared Survey Explorer

* Pictures

* Orbital Elements

Epoch 2017 Jan. 7.0 TT = JDT 2457760.5
T 2017 Jan. 18.83720 TT                                 MPCW
q   1.5005809            (2000.0)            P               Q
n   0.01105810     Peri.  110.12842     -0.32684496     -0.94423144
a  19.9533480      Node   357.48520     +0.02750904     +0.03279308
e   0.9247955      Incl.   65.70654     +0.94467752     -0.32764556
P  89.13
From 33 observations 2017 Feb. 6-26, mean residual 0".7.

* Magnitudes Graph

        m1 = 17.5 + 5 log d + 10.0 log r

---------------------------------------------------------------------

The orbital elements are published on M.P.E.C. 2017-E59.
The magnitudes graphs are made with Comet for Windows.

---------------------------------------------------------------------

Copyright(C) Seiichi Yoshida (comet@aerith.net). All rights reserved.